Location: San Pelegr�n
(42.1868°N, 0.0079°E)
Time: 06:32:13
(UTC+00:00)

Cosmos 1980 - Pass Details

Date: 24 January 2020
Orbit: 838 x 849 km, 71.0° (Epoch: 19 February)

Event Time Altitude Azimuth Distance (km) Brightness Sun altitude
Rises 17:40:36 0° 335° (NNW) 3,420 6.9 -7.2°
Reaches altitude 10° 17:43:03 10° 335° (NNW) 2,481 6.2 -7.6°
Maximum altitude 17:48:46 89° 251° (WSW) 855 3.8 -8.6°
Drops below altitude 10° 17:54:27 10° 158° (SSE) 2,464 6.1 -9.6°
Sets 17:56:53 0° 158° (SSE) 3,395 6.8 -10.1°
